Theta_e
308 309 308 308 308 309 309 309 310 311 311 311 311 311 312 313 314 315 316 317 321 323 322 322 323 325 326 327 326 328 329 328 328 328 327 317 319 317 317 318 318 319 318 318 317
307 307 307 308 308 308 308 309 310 310 311 312 312 312 311 312 313 314 315 317 317 321 322 323 323 325 325 324 324 326 328 328 327 325 324 320 318 318 319 319 318 318 318 317 317
307 308 308 308 308 308 308 308 309 310 310 310 311 311 311 311 311 315 316 316 317 318 322 322 322 325 324 323 324 324 325 324 324 324 322 320 317 317 319 320 319 319 317 317 316
307 307 307 308 308 308 308 308 308 309 309 310 310 311 311 310 314 320 320 320 319 317 319 321 323 322 323 323 322 323 324 324 324 321 318 318 317 318 319 320 319 319 318 317 316
307 307 307 307 307 308 308 308 308 308 309 309 310 310 310 310 311 316 322 321 318 319 317 321 322 322 323 322 321 323 324 321 320 318 318 317 318 319 319 318 318 319 317 317 316
302 304 305 306 307 308 308 308 308 308 308 309 309 309 309 311 313 313 314 315 316 318 318 320 322 322 323 322 323 323 322 319 317 317 317 318 318 318 319 318 319 318 317 316 315
300 300 301 302 304 306 308 309 308 308 308 309 309 309 308 312 313 313 314 318 315 316 321 321 322 323 323 324 322 320 322 320 319 318 319 318 319 320 319 318 318 317 317 316 315
306 305 302 301 301 302 304 307 308 309 308 309 309 309 309 313 313 313 312 313 319 319 320 322 322 323 322 321 321 321 320 322 321 318 317 318 322 322 318 318 319 317 315 315 315
308 308 307 306 305 303 302 303 306 308 309 309 310 310 312 312 313 313 313 313 316 317 322 322 322 323 320 323 322 322 325 324 322 318 318 318 321 321 317 318 319 317 315 315 315
307 307 306 307 306 307 305 302 304 308 309 312 314 313 312 313 313 314 315 313 314 317 322 322 321 323 322 323 324 324 323 321 322 321 318 319 319 321 319 318 319 317 316 316 315
308 308 307 305 307 307 307 302 307 313 313 312 313 312 314 313 315 316 317 315 316 321 323 321 324 325 324 323 322 323 323 323 322 321 320 322 322 322 320 318 318 318 316 316 316
306 307 307 306 305 307 304 301 308 307 309 312 314 314 313 315 314 314 318 319 322 322 322 321 325 325 323 322 321 322 323 323 322 320 320 322 322 322 321 320 319 319 317 317 317
304 306 307 307 306 306 305 303 308 308 311 312 311 314 313 314 315 315 320 319 322 322 323 325 325 321 322 322 322 323 324 324 324 321 320 320 321 323 322 319 318 318 318 317 317
304 304 306 307 305 304 304 302 304 306 314 314 315 314 314 315 316 314 315 321 322 323 323 325 322 322 322 324 323 325 323 323 323 323 324 320 324 323 323 323 322 320 317 317 316
303 304 306 307 306 304 303 306 307 309 312 313 316 316 315 316 316 316 314 318 323 323 323 325 322 323 324 324 323 324 322 323 322 323 321 322 322 322 321 324 324 324 319 317 316
302 303 305 306 306 305 304 304 309 316 315 314 316 317 317 316 316 316 317 318 322 323 322 325 321 323 324 323 322 323 322 321 320 321 324 323 322 322 323 324 325 324 320 317 317
302 302 304 307 306 305 304 303 317 317 313 315 316 317 318 317 317 318 318 319 323 325 326 324 324 322 323 324 321 323 324 325 326 326 324 321 322 323 324 325 323 323 322 318 316
302 301 302 303 305 306 304 309 315 314 314 314 314 317 317 318 317 317 318 318 321 324 325 326 326 323 322 325 324 323 325 325 326 324 324 321 323 322 325 325 324 322 322 317 316
301 302 302 303 306 305 303 311 313 313 314 314 314 318 318 318 318 317 318 319 320 324 323 325 324 321 322 323 324 321 323 323 324 321 323 323 324 325 327 327 324 321 318 317 316
299 302 302 303 306 305 304 308 310 312 314 314 315 316 319 318 318 318 318 318 318 321 324 323 324 322 322 322 320 323 321 323 321 324 325 323 325 324 325 327 328 323 320 317 317
299 303 303 303 305 303 306 306 307 310 312 314 315 316 317 318 318 318 318 317 319 319 322 323 324 323 321 323 324 321 323 322 322 322 325 326 324 326 327 331 333 329 321 318 317
300 304 303 304 303 302 306 305 305 307 308 311 314 315 316 317 318 319 318 318 317 320 321 323 325 325 323 322 324 324 324 324 325 326 324 324 325 324 329 331 331 329 322 318 318
300 300 303 303 305 306 305 305 305 305 306 310 314 314 315 317 319 319 318 318 316 319 323 322 327 326 323 327 327 323 323 324 325 325 326 325 325 326 329 330 329 326 321 318 318
299 303 300 303 304 306 306 306 305 304 305 305 307 313 314 315 316 317 318 316 316 318 319 322 325 326 325 324 325 328 326 324 325 325 324 325 324 327 329 330 328 327 322 319 318
300 301 301 303 303 303 305 305 305 306 305 307 308 311 314 315 315 315 316 316 315 319 320 324 325 323 323 322 325 325 325 327 326 325 325 325 327 327 328 330 330 327 322 319 319
299 301 300 301 300 304 305 305 306 305 305 306 308 312 312 314 313 315 315 316 316 315 321 320 324 322 322 321 322 322 322 325 326 325 326 324 326 327 327 328 329 325 321 320 320
299 301 301 303 304 306 306 305 305 305 305 305 306 307 310 311 311 312 311 311 312 314 315 321 325 322 323 321 321 323 322 322 325 325 325 325 326 327 329 330 329 327 323 323 322
Wind_Speed
12 14 15 14 14 15 14 15 13 14 14 15 15 15 13 15 19 24 30 24 22 18 10 8 7 11 14 9 7 4 3 5 5 3 4 4 6 6 5 5 6 7 7 8 6
13 14 14 15 16 16 16 16 16 16 15 16 16 16 15 16 19 29 32 20 21 23 17 14 12 14 8 7 5 6 3 5 5 5 8 5 10 7 6 5 6 7 11 8 8
17 16 17 17 18 18 17 17 17 16 15 16 14 14 14 15 18 24 18 12 19 23 22 15 9 15 9 6 7 5 9 10 13 20 14 7 8 9 9 6 12 16 14 13 11
20 20 19 19 19 18 18 18 18 16 16 17 16 13 12 10 7 2 4 7 14 20 23 18 15 10 6 5 6 8 13 11 10 7 6 5 6 8 13 13 5 11 12 15 13
23 22 22 22 21 21 20 20 19 18 17 17 17 15 13 11 27 9 8 3 3 20 28 23 17 11 8 6 6 9 15 5 7 5 7 5 5 7 14 15 13 9 15 16 13
23 24 24 23 23 23 23 22 19 18 18 18 18 17 14 16 19 15 26 24 15 7 29 28 16 18 6 6 11 8 11 1 1 1 2 3 2 3 6 15 14 13 17 16 13
23 23 24 25 25 25 24 22 20 19 19 19 19 20 21 33 12 13 8 10 18 13 19 29 23 15 10 5 8 4 5 3 2 2 1 4 5 9 12 11 15 17 19 17 15
24 23 23 24 25 25 24 22 20 20 20 19 20 20 17 22 19 22 29 20 8 10 11 18 22 12 6 1 1 4 3 2 1 3 1 7 13 10 12 17 18 18 19 19 18
24 24 23 23 25 24 23 22 20 20 20 19 15 12 13 15 18 20 25 19 16 10 10 12 18 9 6 7 5 2 4 5 5 5 2 8 10 8 5 17 18 18 21 21 18
23 21 23 23 22 22 22 18 16 17 16 9 9 5 20 11 7 7 9 22 13 16 14 12 7 8 6 8 11 8 3 3 4 2 5 7 14 18 12 14 20 19 19 19 20
25 24 24 21 20 19 18 8 6 5 15 14 11 12 2 8 8 7 10 21 18 16 11 12 10 16 17 11 6 7 4 4 5 6 4 9 13 18 15 14 16 18 21 21 22
24 23 23 22 18 15 12 3 0 3 10 22 31 26 25 12 5 10 12 16 13 13 11 7 18 13 11 10 8 6 4 5 6 4 4 10 14 16 11 9 17 21 23 24 21
23 22 20 21 20 11 9 6 6 4 6 12 28 29 40 24 13 13 17 13 12 13 21 19 10 13 11 10 9 6 6 4 8 1 5 6 8 7 6 6 8 14 21 23 25
19 20 20 18 15 10 8 11 9 5 5 6 10 13 27 18 11 32 18 14 6 19 14 13 10 14 12 13 12 10 11 6 5 4 8 2 6 6 8 12 9 13 19 23 26
17 16 19 16 9 6 6 11 6 7 6 5 7 4 14 30 12 19 30 19 14 11 11 15 15 15 12 12 12 9 6 5 3 6 2 4 4 4 4 9 14 13 18 22 27
19 15 17 18 16 14 11 7 8 4 12 4 9 11 13 25 11 10 18 17 12 8 7 18 6 11 14 7 12 5 4 3 2 2 4 6 6 3 5 7 6 5 8 20 26
18 20 16 23 16 13 12 8 6 10 0 8 8 10 15 13 17 11 19 21 16 16 19 10 14 6 8 9 4 8 7 5 4 4 6 2 4 8 12 12 9 14 8 16 25
20 17 23 22 19 16 10 6 12 12 18 2 4 11 13 15 17 14 19 20 21 21 15 16 13 16 9 18 13 13 13 8 5 4 7 3 5 5 4 3 6 8 5 15 25
18 20 24 20 25 17 8 13 15 14 16 7 6 10 9 13 9 15 21 23 25 23 17 18 18 7 14 9 17 7 7 6 9 1 4 3 5 10 2 6 2 3 7 16 25
17 19 24 21 26 22 7 25 14 9 5 23 16 9 15 19 11 17 19 17 20 22 16 7 9 13 11 11 7 13 12 5 2 5 7 4 3 7 8 8 2 4 9 16 22
16 9 12 21 27 18 12 16 21 16 9 12 23 9 8 11 18 17 12 11 23 21 19 13 9 4 10 16 19 7 9 3 3 3 8 8 5 5 5 4 5 6 12 19 25
10 4 14 21 10 4 15 13 10 12 31 7 4 19 8 10 15 14 17 13 24 18 22 19 11 15 10 3 15 22 18 15 10 10 4 5 10 5 8 5 6 2 9 16 26
5 5 21 31 8 4 14 19 20 12 12 5 5 3 11 8 6 11 9 7 17 22 19 13 10 12 12 5 3 13 12 13 7 4 13 12 7 5 6 5 4 9 14 18 26
4 3 5 19 8 5 17 18 14 17 19 17 15 7 5 10 3 4 8 0 11 19 21 24 10 24 20 12 14 10 12 15 16 10 11 12 14 6 10 7 7 12 13 17 26
12 5 3 3 6 16 9 8 19 13 17 11 10 12 5 8 11 10 3 4 4 7 10 15 18 17 22 17 17 19 19 18 17 16 14 13 11 14 14 11 10 10 13 17 22
6 3 6 2 5 16 7 11 20 12 20 17 14 6 2 4 2 9 1 3 3 5 8 1 7 14 19 15 21 23 22 19 21 20 19 18 17 12 10 12 11 13 16 17 22
8 11 2 1 3 4 9 18 13 18 9 29 12 18 9 3 3 3 4 5 0 1 3 5 8 7 14 11 17 20 26 23 21 17 17 17 18 9 9 13 16 16 20 21 22
Wind_Direction
273 277 288 294 297 295 295 295 302 298 302 310 311 307 308 295 282 271 261 247 237 236 236 238 253 208 191 191 193 185 232 253 258 241 287 212 221 224 226 177 169 195 239 253 238
281 284 283 287 289 289 293 297 293 298 302 303 303 309 308 299 288 272 267 259 243 233 232 239 233 192 184 179 182 208 230 233 225 218 255 233 219 208 192 161 206 222 239 220 202
291 292 290 288 285 288 298 292 292 295 294 293 294 299 302 302 305 279 280 230 234 231 228 241 225 189 199 166 185 199 250 250 254 250 253 250 209 197 205 206 213 220 211 198 209
287 287 286 282 284 286 284 286 287 288 288 290 293 295 292 288 255 233 206 118 212 206 218 213 174 174 181 207 203 239 240 243 284 274 206 224 179 206 213 241 210 247 234 205 213
280 280 281 283 284 284 283 283 283 283 283 285 289 289 289 256 244 238 212 220 330 208 206 204 192 192 218 206 201 231 260 214 257 264 217 181 225 233 239 233 244 241 202 203 213
285 284 281 280 279 278 277 278 279 281 281 282 284 284 280 251 277 261 246 251 252 232 205 209 205 205 201 210 217 231 232 219 142 281 189 211 213 213 277 230 229 217 201 207 217
287 287 288 285 282 277 274 274 277 278 278 278 279 278 264 250 259 278 256 256 239 238 220 212 211 186 192 220 245 264 193 138 177 208 3 195 248 232 251 221 212 203 204 208 212
287 287 287 286 284 282 283 281 278 276 275 275 275 271 253 274 264 248 247 246 219 212 222 235 215 209 189 205 128 214 99 171 106 184 243 211 275 274 250 206 204 201 204 207 212
294 293 288 284 284 286 287 286 281 274 275 277 266 233 265 258 252 250 242 231 217 230 205 196 182 189 166 217 207 186 248 275 293 214 159 214 268 276 251 213 211 202 204 208 211
303 301 307 294 286 286 286 290 285 274 264 250 224 232 244 231 230 243 220 217 196 179 157 167 168 180 181 200 220 235 202 198 246 242 213 245 254 273 264 220 222 209 202 206 212
291 302 309 310 291 290 291 309 285 239 218 207 204 215 206 210 238 223 222 182 189 167 177 179 191 207 203 207 214 225 195 227 242 256 257 262 273 276 278 236 222 210 205 206 213
282 288 295 305 310 289 297 289 14 273 295 244 241 239 231 237 301 209 188 165 178 186 150 158 214 201 180 194 186 181 190 238 270 271 222 280 274 277 268 252 229 217 208 207 205
280 273 287 295 306 284 271 224 214 312 268 267 238 231 227 222 222 225 182 193 186 174 188 201 196 160 172 173 183 188 210 219 286 312 239 279 274 282 292 263 249 231 223 211 205
286 270 272 284 295 258 242 213 233 242 283 252 208 233 211 207 235 228 199 189 188 199 183 207 158 167 179 194 197 219 218 239 247 267 292 228 296 292 294 291 262 238 214 207 202
286 280 265 267 251 256 175 174 199 170 274 173 179 175 185 182 165 201 210 206 205 172 178 192 171 180 187 203 184 241 165 205 230 252 295 212 243 271 290 278 271 252 217 206 202
282 269 256 253 251 241 223 186 161 199 242 210 160 169 155 197 205 138 173 194 196 173 209 212 177 190 205 189 191 161 133 93 95 176 249 243 227 266 247 249 269 261 211 202 194
275 267 250 246 246 255 221 177 190 224 39 188 181 172 173 179 203 177 181 186 184 182 203 185 200 188 193 206 136 176 190 238 236 219 268 103 200 263 269 267 277 295 272 200 190
267 264 256 249 240 236 224 200 218 225 211 108 141 166 184 159 207 197 183 192 200 200 189 197 209 197 181 213 203 196 206 232 238 241 292 137 233 261 275 335 304 311 251 182 183
269 256 254 248 227 216 203 202 222 196 195 201 155 166 185 189 183 193 208 203 193 191 191 197 216 175 183 189 197 176 200 231 247 52 260 253 248 279 270 253 292 94 162 173 182
260 259 251 234 208 197 202 228 226 208 188 209 204 182 186 189 186 193 185 208 200 198 200 170 198 207 187 197 197 204 161 176 192 227 252 215 263 266 294 314 249 201 189 177 182
247 248 236 225 205 189 208 226 234 261 334 204 221 208 196 174 195 196 204 196 190 186 196 176 190 150 177 199 205 179 202 188 231 233 256 272 263 231 227 290 309 231 201 179 182
232 243 195 194 189 221 213 222 298 307 250 303 267 229 207 179 187 196 202 199 189 161 193 190 199 208 195 178 227 206 207 206 225 211 231 272 266 194 215 256 292 198 194 193 183
213 243 205 190 211 211 232 241 261 289 305 269 281 303 217 191 199 211 191 216 181 185 178 168 202 200 219 202 168 212 199 207 220 229 224 242 252 167 238 258 200 165 173 189 181
195 254 208 200 213 236 225 227 238 265 270 262 289 300 242 218 211 157 194 152 184 194 186 176 189 208 212 230 197 201 190 203 201 219 230 237 253 217 222 223 199 168 172 184 183
197 227 224 213 217 222 224 244 229 232 261 253 247 246 321 233 216 212 156 170 96 178 159 185 217 218 224 204 194 212 213 206 212 224 227 232 224 237 221 208 209 162 162 180 180
195 224 152 290 307 228 212 206 231 241 221 244 245 240 149 313 318 188 220 27 103 56 160 161 203 204 217 208 215 224 222 212 217 219 230 244 248 239 224 192 192 167 170 194 186
203 223 346 211 247 191 208 227 219 221 242 236 253 246 268 280 2 349 300 293 332 58 112 139 152 163 215 203 219 242 229 220 219 212 218 227 240 198 196 201 204 183 186 196 198